Weather History for Wauseon Fulton County Airport, OH

Change the Weather History Date:

Tuesday, May 6, 2014

  Actual Average (KTOL) Record (KTOL)
Temperature  
Mean Temperature 50 °F 57 °F  
Max Temperature 62 °F 68 °F 90 °F (1949)
Min Temperature 39 °F 45 °F 26 °F (1968)
Degree Days  
Heating Degree Days 14 9  
Month to date heating degree days 58  
Since 1 July heating degree days 5960  
Cooling Degree Days 0 1  
Month to date cooling degree days 3  
Year to date cooling degree days 11  
Moisture  
Dew Point 36 °F    
Average Humidity 54    
Maximum Humidity 87    
Minimum Humidity 30    
Precipitation  
Precipitation 0.00 in 0.11 in 0.85 in (1976)
Month to date precipitation 0.66  
Year to date precipitation 10.45  
Snow  
Snow 0.00 in 0.10 in - ()
Month to date snowfall 0.1  
Since 1 July snowfall 37.6  
Snow Depth -    
Sea Level Pressure  
Sea Level Pressure 30.04 in    
Wind  
Wind Speed 10 mph (ENE)    
Max Wind Speed 18 mph    
Max Gust Speed 26 mph    
Visibility 10 miles    
Events      
T = Trace of Precipitation, MM = Missing Value Source: NWS Daily Summary

Daily Weather History Graph

Daily Weather History Graph

Search for Another Location

Airport:

Trip Planner

Search our weather history database for the weather conditions in past years. The results will help you decide how hot, cold, wet, or windy it might be!

Date:

Astronomy

May. 06, 2014 Rise Set
Actual Time 6:26 AM EDT 8:39 PM EDT
Civil Twilight 5:56 AM EDT 9:10 PM EDT
Nautical Twilight 5:18 AM EDT 9:48 PM EDT
Astronomical Twilight 4:36 AM EDT 10:30 PM EDT
Moon 12:43 PM EDT (5/6) 1:57 AM EDT (5/6)
Length of Visible Light 15h 14m
Length of Day
14h 12m
Waxing Crescent, 46% of the Moon is Illuminated
May 6
Waxing Crescent
May 6
First Quarter
May 14
Full
May 21
Last Quarter
May 28
New

Hourly Weather History & Observations

Time (EDT) Temp. Windchill Dew Point Humidity Pressure Visibility Wind Dir Wind Speed Gust Speed Precip Events Conditions
12:15 AM 42.8 °F 40.1 °F 33.8 °F 70% 29.98 in 10.0 mi NNE 4.6 mph - N/A   Clear
12:35 AM 41.0 °F 38.0 °F 33.8 °F 76% 29.99 in 10.0 mi NNE 4.6 mph - N/A   Clear
1:15 AM 41.0 °F 38.0 °F 33.8 °F 76% 29.99 in 10.0 mi NNE 4.6 mph - N/A   Clear
1:35 AM 41.0 °F 37.1 °F 33.8 °F 76% 29.99 in 10.0 mi NNE 5.8 mph - N/A   Clear
1:55 AM 41.0 °F 36.4 °F 33.8 °F 76% 29.99 in 10.0 mi NNE 6.9 mph - N/A   Clear
2:15 AM 41.0 °F 37.1 °F 33.8 °F 76% 29.99 in 10.0 mi NNE 5.8 mph - N/A   Clear
2:35 AM 41.0 °F 35.8 °F 33.8 °F 76% 30.00 in 10.0 mi NE 8.1 mph - N/A   Clear
2:55 AM 39.2 °F 33.6 °F 33.8 °F 81% 29.99 in 10.0 mi NE 8.1 mph - N/A   Clear
3:15 AM 41.0 °F 36.4 °F 35.6 °F 81% 29.99 in 10.0 mi NE 6.9 mph - N/A   Clear
7:55 AM 42.8 °F 38.0 °F 39.2 °F 87% 30.05 in 10.0 mi NE 8.1 mph - N/A   Clear
8:15 AM 44.6 °F 39.7 °F 39.2 °F 81% 30.06 in 10.0 mi ENE 9.2 mph - N/A   Clear
8:35 AM 44.6 °F 39.7 °F 39.2 °F 81% 30.06 in 10.0 mi ENE 9.2 mph - N/A   Clear
8:55 AM 46.4 °F 41.5 °F 39.2 °F 76% 30.07 in 10.0 mi ENE 10.4 mph - N/A   Clear
9:15 AM 48.2 °F - 39.2 °F 71% 30.07 in 10.0 mi East 9.2 mph - N/A   Clear
9:55 AM 51.8 °F - 39.2 °F 62% 30.08 in 10.0 mi East 12.7 mph - N/A   Clear
10:15 AM 53.6 °F - 39.2 °F 58% 30.07 in 10.0 mi ENE 12.7 mph - N/A   Clear
10:35 AM 53.6 °F - 39.2 °F 58% 30.07 in 10.0 mi East 11.5 mph 17.3 mph N/A   Clear
10:55 AM 55.4 °F - 39.2 °F 54% 30.08 in 10.0 mi East 10.4 mph 18.4 mph N/A   Clear
11:15 AM 55.4 °F - 37.4 °F 51% 30.07 in 10.0 mi East 9.2 mph 20.7 mph N/A   Clear
11:35 AM 57.2 °F - 37.4 °F 48% 30.07 in 10.0 mi East 13.8 mph 19.6 mph N/A   Clear
11:55 AM 57.2 °F - 37.4 °F 48% 30.07 in 10.0 mi East 12.7 mph 19.6 mph N/A   Clear
12:15 PM 57.2 °F - 37.4 °F 48% 30.07 in 10.0 mi ESE 11.5 mph 19.6 mph N/A   Clear
12:35 PM 59.0 °F - 37.4 °F 45% 30.07 in 10.0 mi ENE 16.1 mph - N/A   Clear
12:55 PM 59.0 °F - 37.4 °F 45% 30.06 in 10.0 mi ENE 15.0 mph - N/A   Clear
1:15 PM 59.0 °F - 35.6 °F 42% 30.06 in 10.0 mi East 16.1 mph - N/A   Clear
1:35 PM 59.0 °F - 37.4 °F 45% 30.06 in 10.0 mi ENE 16.1 mph - N/A   Clear
1:55 PM 60.8 °F - 35.6 °F 39% 30.05 in 10.0 mi ENE 13.8 mph 23.0 mph N/A   Clear
2:15 PM 60.8 °F - 35.6 °F 39% 30.05 in 10.0 mi East 13.8 mph - N/A   Clear
2:35 PM 60.8 °F - 35.6 °F 39% 30.05 in 10.0 mi ESE 16.1 mph - N/A   Clear
2:55 PM 60.8 °F - 33.8 °F 36% 30.04 in 10.0 mi ENE 17.3 mph - N/A   Clear
3:15 PM 62.6 °F - 33.8 °F 34% 30.04 in 10.0 mi East 18.4 mph 26.5 mph N/A   Clear
3:35 PM 60.8 °F - 33.8 °F 36% 30.03 in 10.0 mi East 12.7 mph 20.7 mph N/A   Clear
4:15 PM 60.8 °F - 32.0 °F 34% 30.03 in 10.0 mi ENE 12.7 mph 20.7 mph N/A   Clear
4:35 PM 62.6 °F - 30.2 °F 30% 30.03 in 10.0 mi East 17.3 mph - N/A   Clear
4:55 PM 62.6 °F - 32.0 °F 32% 30.03 in 10.0 mi ENE 16.1 mph 21.9 mph N/A   Clear
5:15 PM 60.8 °F - 32.0 °F 34% 30.02 in 10.0 mi ENE 18.4 mph - N/A   Clear
5:35 PM 60.8 °F - 33.8 °F 36% 30.02 in 10.0 mi East 15.0 mph - N/A   Clear
5:55 PM 60.8 °F - 33.8 °F 36% 30.02 in 10.0 mi East 18.4 mph - N/A   Clear
6:15 PM 59.0 °F - 35.6 °F 42% 30.03 in 10.0 mi East 18.4 mph - N/A   Clear
6:35 PM 59.0 °F - 35.6 °F 42% 30.02 in 10.0 mi ENE 17.3 mph - N/A   Clear
6:55 PM 59.0 °F - 35.6 °F 42% 30.02 in 10.0 mi East 17.3 mph 24.2 mph N/A   Clear
7:15 PM 57.2 °F - 35.6 °F 44% 30.02 in 10.0 mi East 16.1 mph - N/A   Clear
7:35 PM 57.2 °F - 35.6 °F 44% 30.03 in 10.0 mi East 17.3 mph 24.2 mph N/A   Clear
7:55 PM 55.4 °F - 35.6 °F 47% 30.03 in 10.0 mi East 13.8 mph - N/A   Clear
8:15 PM 55.4 °F - 35.6 °F 47% 30.03 in 10.0 mi East 13.8 mph - N/A   Clear
8:35 PM 53.6 °F - 37.4 °F 54% 30.04 in 10.0 mi East 10.4 mph - N/A   Clear
8:55 PM 51.8 °F - 37.4 °F 58% 30.04 in 10.0 mi East 10.4 mph - N/A   Clear
9:15 PM 51.8 °F - 35.6 °F 54% 30.05 in 10.0 mi East 12.7 mph - N/A   Clear
9:35 PM 51.8 °F - 35.6 °F 54% 30.05 in 10.0 mi East 11.5 mph - N/A   Clear
9:55 PM 51.8 °F - 35.6 °F 54% 30.04 in 10.0 mi East 13.8 mph - N/A   Clear
10:15 PM 51.8 °F - 35.6 °F 54% 30.04 in 10.0 mi East 12.7 mph - N/A   Clear
10:35 PM 50.0 °F - 35.6 °F 58% 30.04 in 10.0 mi East 12.7 mph - N/A   Clear
11:15 PM 50.0 °F - 35.6 °F 58% 30.02 in 10.0 mi East 13.8 mph - N/A   Clear
11:35 PM 50.0 °F - 35.6 °F 58% 30.01 in 10.0 mi East 15.0 mph - N/A   Clear
11:55 PM 50.0 °F - 37.4 °F 62% 30.03 in 10.0 mi ENE 11.5 mph - N/A   Clear